Regional Weather Roundup
Issued by NWS Cleveland, OH

Home | Current Version | Previous Version | Graphics & Text | Print | Product List | Glossary On
Versions: 1 2 3 4 5 6 7 8 9 10 11 12 13 14 15 16 17 18 19 20 21 22 23 24 25 26 27 28 29 30 31 32 33 34 35 36 37 38 39 40 41 42 43 44 45 46 47 48 49 50
000
ASUS41 KCLE 151612
RWRCLE
OHIO REGIONAL WEATHER ROUNDUP
NATIONAL WEATHER SERVICE WILMINGTON, OH
1100 AM EST FRI DEC 15 2017

NOTE: "FAIR" INDICATES FEW OR NO CLOUDS BELOW 12,000 FEET WITH NO
SIGNIFICANT WEATHER AND/OR OBSTRUCTIONS TO VISIBILITY.

OHZ001>008-015>018-024>027-034-035-043-044-151700-
   NORTHWEST OHIO

CITY           SKY/WX    TMP DP  RH WIND       PRES   REMARKS
DEFIANCE       CLOUDY    25  17  72 SW10      29.91S WCI  15
FINDLAY        CLOUDY    26  16  65 SW15      29.91F WCI  14
TOLEDO EXPRESS LGT SNOW  25  18  74 SW14G20   29.89F WCI  13
TOLEDO EXEC    CLOUDY    25  16  68 SW15      29.91F WCI  13
LIMA           CLOUDY    26  18  71 SW16G24   29.92F WCI  14
$$

OHZ009>014-019>023-028>033-038-089-151700-
   NORTHEAST OHIO

CITY           SKY/WX    TMP DP  RH WIND       PRES   REMARKS
CLE-HOPKINS    CLOUDY    21  11  65 S15       29.95F WCI   8
CLE-LAKEFRONT  CLOUDY    21  11  65 S10       29.92F WCI  10
CUY CO. ARPT   CLOUDY    23  12  63 SW12      29.92F WCI  12
LORAIN-ELYRIA  CLOUDY    19   9  65 SW10      29.93F WCI   7
ASHTABULA      CLOUDY    17  10  74 S8        29.92F WCI   7
AKRON-CANTON   CLOUDY    19  11  70 SW7       29.93S WCI  10
WOOSTER        CLOUDY    17  12  80 SW9       29.94F WCI   6
MANSFIELD      CLOUDY    21  12  68 S13       29.91F WCI   9
YOUNGSTOWN     CLOUDY    16  12  84 SW8       29.92F WCI   5
$$

OHZ042-051>053-060>062-070>072-077>081-151700-
  SOUTHWEST OHIO

CITY           SKY/WX    TMP DP  RH WIND       PRES   REMARKS
CINC-COVINGTON CLOUDY    27  20  75 SW8       30.04R WCI  19
CINC-LUNKEN    CLOUDY    29  20  69 SW7       30.08R WCI  22
HAMILTON       CLOUDY    28  20  71 W7        30.06R WCI  21
DAYTON         PTSUNNY   26  20  77 SW15      29.99S WCI  14
WRIGHT-PAT AFB CLOUDY    26  19  74 SW13      30.00S WCI  15
DAYTON GENERAL CLOUDY    26  18  71 SW12      30.00R WCI  16
WILMINGTON     CLOUDY    26  19  74 SW12      30.01R WCI  16
$$

OHZ036-037-039>041-045>050-054>059-063>069-073>076-082>088-151700-
  CENTRAL AND SOUTHEAST OHIO

CITY           SKY/WX    TMP DP  RH WIND       PRES   REMARKS
COLUMBUS       CLOUDY    26  17  68 SW13      30.00R WCI  15
OSU AIRPORT    CLOUDY    25  18  74 SW14      29.98S WCI  13
BOLTON FIELD   CLOUDY    27  19  74 SW12      30.00R WCI  16
RICKENBACK AFB CLOUDY    26  20  79 SW9       30.01S WCI  16
NEWARK         CLOUDY    26  17  68 SW9       29.98S WCI  17
MARION         CLOUDY    24  15  68 SW13      29.95  WCI  12
LANCASTER      FAIR      25  18  74 SW10      30.01R WCI  15
ZANESVILLE     PTSUNNY   25  16  68 S7        29.98F WCI  17
NEW PHILLY     FAIR      19  15  84 SE3       29.98F
$$




USA.gov is the U.S. government's official web portal to all federal, state and local government web resources and services.